Back to catalog

THOR ABLESTAR DEB

AliveLEO
NORAD 260·DEBRIS·🇺🇸 United States

Launched Jun 29, 1961 from Cape Canaveral Space Force Station

Loading…

Next Passes (next 24 hours)

TLE

FreshSource: Space-Track

Epoch: Sep 9, 2026, 06:20 UTC

1 00260U 61015CG  26252.26420400  .00000866  00000-0  27383-3 0  9992
2 00260  66.7684 336.5348 0036207  49.9409 310.4863 14.44531359368485

Track THOR ABLESTAR DEB in real time with AllMySat

Download on the App Store